User: anonymous   Login
Location: Unspecified
(0.0000°N, 0.0000°E)
Time: 02:40:33
(UTC+00:00)
Language:

AO-92 - Orbit

View from above orbital plane
View from above orbital plane
View from above satellite
View from above satellite

Ground track
Ground track

The orbit data is extracted from the following two-line orbital elements,

1 43137U 18004AC  20185.43778336  .00000614  00000-0  28170-4 0  9991
2 43137  97.4452 256.4904 0009256  10.6173 349.5258 15.24149270137474
Epoch (UTC): 03 July 2020 10:30:24
Eccentricity: 0.0009256
inclination: 97.4452°
perigee height: 487 km
apogee height: 500 km
right ascension of ascending node: 256.4904°
argument of perigee: 10.6173°
revolutions per day: 15.24149270
mean anomaly at epoch: 349.5258°
orbit number at epoch: 13747

The dashed part of the orbit path shows where the satellite is in the earth's shadow,  

DLR